www.pogodaiklimat.ru

Погода и климат >> Архив погоды >> Дания >> Мыс Sletterhage


ПОГОДА на Мысе Sletterhage

  • Прогноз погоды на Мысе Sletterhage
  • Монитор погоды на Мысе Sletterhage

АРХИВ ПОГОДЫ на Мысе Sletterhage

Время (UTC), дата Ветер
(напр.,м/с)
 
Видим.   Явления Облачность Т
(С)
Тd
(С)
f
(%)
Тe
(С)
Тes
(С)
Комфортность P
(гПа)
Po
(гПа)
Тmin
(С)
Tmax
(С)
R
(мм)
R24
(мм)
S
(см)
22 8.06 Ю 8 н/о н/о +13.6 +10.8 83 +11 +11 1014.9 1014.2
23 8.06 Ю 8 н/о н/о +13.5 +10.7 83 +11 +11 1015.2 1014.5
00 9.06 Ю 9-14
{19}
н/о н/о +13.3 +10.9 85 +10 +10 1015.2 1014.4
01 9.06 Ю 9 н/о н/о +13.4 +10.6 83 +11 +11 1015.3 1014.5
02 9.06 ЮЗ 13 н/о н/о +13.2 +9.4 78 +10 +10 1015.7 1015.0
03 9.06 ЮЗ 12 н/о н/о +12.9 +9.1 78 +9 +9 1016.0 1015.3
04 9.06 Ю 13 н/о н/о +13.1 +9.9 81 +9 +9 1016.2 1015.5
05 9.06 ЮЗ 14 н/о н/о +13.1 +9.9 81 +9 +9 1016.8 1016.1
06 9.06 ЮЗ 11
{17}
н/о н/о +12.9 +10.2 84 +9 +9 1017.7 1017.0 +12.6 +15.2
07 9.06 ЮЗ 12 н/о н/о +12.2 +10.7 91 +8 +8 1018.7 1017.9
08 9.06 ЮЗ 9 н/о н/о +12.8 +9.8 82 +10 +10 1019.5 1018.8
09 9.06 З 7 н/о н/о +13.9 +9.5 75 +12 +12 1020.7 1020.0
10 9.06 ЮЗ 7 н/о н/о +14.4 +8.6 68 +12 +12 1021.2 1020.5
11 9.06 З 6 н/о н/о +15.5 +8.5 63 +14 +14 1021.5 1020.8
12 9.06 ЮЗ 5
{12}
н/о н/о +16.1 +8.2 59 +15 +15 1021.8 1021.1
13 9.06 ЮЗ 5 н/о н/о +16.3 +8.3 59 +15 +15 1022.0 1021.3
14 9.06 ЮЗ 5 н/о н/о +16.3 +9.3 63 +15 +15 1022.0 1021.3
15 9.06 ЮЗ 4 н/о н/о +16.1 +9.1 63 +15 +15 1022.3 1021.6
16 9.06 Ю 5 н/о н/о +15.1 +10.3 73 +14 +14 1022.1 1021.4
17 9.06 ЮЗ 4 н/о н/о +15.3 +10.7 74 +14 +14 1022.0 1021.3
18 9.06 ЮЗ 4 н/о н/о +15.0 +10.0 72 +14 +14 1022.2 1021.5 +11.9 +17.2
19 9.06 ЮЗ 3 н/о н/о +15.0 +10.5 74 +14 +14 1022.2 1021.5
20 9.06 ЮЗ 3 н/о н/о +14.6 +10.1 74 +14 +14 1022.5 1021.8
21 9.06 ЮЗ 2 н/о н/о +13.9 +10.5 80 +13 +13 1022.4 1021.7
22 9.06 Ю 2 н/о н/о +13.7 +11.8 88 +13 +13 1022.5 1021.8
23 9.06 Ю 1 н/о н/о +13.4 +11.7 89 +14 +14 1022.2 1021.5
00 10.06 Ю 1 н/о н/о +12.7 +11.5 92 +13 +13 1022.1 1021.4
01 10.06 штиль 0 н/о н/о +12.1 +10.7 91 +11 +11 1022.1 1021.4
02 10.06 штиль 0 н/о н/о +12.1 +9.9 86 +12 +12 1021.9 1021.2
03 10.06 С 1 н/о н/о +12.1 +8.6 79 +12 +12 1021.5 1020.8
04 10.06 С 1 н/о н/о +11.8 +9.4 85 +12 +12 1021.4 1020.7
05 10.06 С 1 н/о н/о +13.0 +11.4 90 +13 +13 1021.0 1020.3
06 10.06 СВ 2 н/о н/о +13.9 +11.2 84 +13 +13 1020.8 1020.1 +11.3 +15.5
07 10.06 СВ 2 н/о н/о +14.4 +11.2 81 +14 +14 1020.5 1019.8
08 10.06 С 2 н/о н/о +15.2 +11.3 78 +15 +15 1020.2 1019.5
09 10.06 СВ 3 н/о н/о +16.4 +10.5 68 +16 +16 1020.0 1019.3
10 10.06 В 4 н/о н/о +15.0 +11.8 81 +14 +14 1020.3 1019.6
11 10.06 СВ 4 н/о н/о +14.6 +11.4 81 +13 +13 1020.2 1019.5
12 10.06 СВ 3 н/о н/о +14.9 +11.0 77 +14 +14 1019.6 1018.9
13 10.06 С 3 н/о н/о +15.3 +10.6 74 +15 +15 1019.2 1018.5
14 10.06 С 4 н/о н/о +15.6 +10.7 73 +15 +15 1018.5 1017.8
15 10.06 С 3 н/о н/о +15.8 +10.5 71 +15 +15 1018.4 1017.7
16 10.06 СВ 3 н/о н/о +15.4 +9.9 70 +15 +15 1018.1 1017.4
17 10.06 С 4 н/о н/о +14.9 +8.5 66 +14 +14 1017.5 1016.8
18 10.06 С 4 н/о н/о +14.7 +9.0 69 +14 +14 1017.3 1016.6 +13.9 +16.9
19 10.06 С 4 н/о н/о +14.6 +8.0 65 +13 +13 1017.2 1016.5
20 10.06 С 4 н/о н/о +14.3 +8.1 66 +13 +13 1017.3 1016.6
21 10.06 С 4 н/о н/о +14.2 +7.8 65 +13 +13 1016.8 1016.1
22 10.06 С 4 н/о н/о +14.2 +8.0 66 +13 +13 1016.4 1015.7
23 10.06 С 4 н/о н/о +14.3 +8.0 66 +13 +13 1015.7 1015.0
00 11.06 С 4 н/о н/о +14.4 +9.3 71 +13 +13 1015.6 1014.9
01 11.06 С 3 н/о н/о +14.8 +10.7 76 +14 +14 1015.0 1014.3
02 11.06 СВ 3 н/о н/о +15.3 +10.7 74 +15 +15 1014.1 1013.4
03 11.06 СВ 4 н/о н/о +15.8 +10.3 70 +15 +15 1013.7 1013.0
04 11.06 СВ 5 н/о н/о +15.6 +10.6 72 +15 +15 1013.7 1013.0
05 11.06 СВ 5 н/о н/о +15.5 +11.2 76 +14 +14 1013.3 1012.6
06 11.06 СВ 6
{8}
н/о н/о +15.4 +11.6 78 +14 +14 1013.1 1012.4 +13.9 +15.8
07 11.06 СВ 6 н/о н/о +16.1 +13.1 82 +15 +15 1012.4 1011.7
08 11.06 СВ 6 н/о н/о +15.2 +13.6 90 +13 +13 1012.4 1011.7
09 11.06 СВ 5 н/о н/о +16.8 +13.7 82 +16 +16 1012.3 1011.6
10 11.06 В 6 н/о н/о +17.2 +13.4 78 +16 +16 1012.5 1011.8
11 11.06 СВ 5 н/о н/о +17.5 +13.6 78 +17 +17 1011.8 1011.1
12 11.06 СВ 5 н/о н/о +17.4 +13.7 79 +17 +17 1011.7 1011.0
13 11.06 СВ 4 н/о н/о +17.5 +13.9 79 +17 +17 1011.8 1011.1
14 11.06 СВ 3 н/о н/о +18.2 +14.6 80 +19 +19 1011.6 1010.9
15 11.06 СВ 4 н/о н/о +18.2 +15.1 82 +18 +18 1011.7 1011.0
16 11.06 В 4 н/о н/о +17.4 +15.6 89 +17 +17 1012.1 1011.4
17 11.06 В 4 н/о н/о +16.7 +15.7 94 +16 +16 1012.1 1011.4
18 11.06 В 5 н/о н/о +16.3 +15.5 95 +15 +15 1012.3 1011.6 +14.9 +19.2
19 11.06 В 5 н/о н/о +15.7 +15.2 97 +15 +15 1012.9 1012.2
20 11.06 ЮВ 5 н/о н/о +15.9 +15.7 99 +15 +15 1013.7 1013.0
21 11.06 ЮВ 1 н/о н/о +15.8 +15.6 99 +16 +16 1014.0 1013.3
22 11.06 В 2 н/о н/о +15.8 +15.7 99 +16 +16 1014.0 1013.3
23 11.06 СВ 2 н/о н/о +16.2 +16.1 99 +16 +16 1013.6 1012.9
00 12.06 В 3 н/о н/о +15.4 +15.3 99 +15 +15 1013.9 1013.2
01 12.06 В 4 н/о н/о +15.2 +15.1 99 +14 +14 1014.6 1013.9
02 12.06 В 2 н/о н/о +15.1 +15.0 99 +15 +15 1014.4 1013.7
03 12.06 В 4 н/о н/о +15.2 +15.0 99 +14 +14 1013.7 1013.0
04 12.06 В 5 н/о н/о +15.2 +14.8 97 +14 +14 1013.4 1012.7
05 12.06 СВ 4 н/о н/о +14.8 +14.7 99 +13 +13 1011.7 1011.0
06 12.06 СВ 4
{12}
н/о н/о +14.8 +14.7 99 +13 +13 1010.5 1009.8 +14.6 +16.3
07 12.06 В 5 н/о н/о +14.6 +14.5 99 +13 +13 1012.8 1012.1
08 12.06 В 4 н/о н/о +15.1 +15.0 99 +14 +14 1012.2 1011.5
09 12.06 В 3 н/о н/о +16.6 +16.4 99 +16 +16 1012.1 1011.4
10 12.06 В 3 н/о н/о +16.7 +16.0 96 +16 +16 1012.1 1011.4
11 12.06 СВ 2 н/о н/о +17.8 +16.4 92 +18 +18 1011.9 1011.2
12 12.06 В 2 н/о н/о +18.6 +16.2 86 +20 +20 1011.5 1010.8
13 12.06 СВ 4 н/о н/о +17.4 +15.3 87 +17 +17 1011.0 1010.3
14 12.06 СВ 3 н/о н/о +17.1 +15.6 91 +17 +17 1010.5 1009.8
15 12.06 СВ 3 н/о н/о +17.3 +15.6 90 +17 +17 1010.0 1009.3
16 12.06 СВ 3 н/о н/о +16.7 +16.1 96 +16 +16 1008.8 1008.1
17 12.06 СВ 5 н/о н/о +17.0 +15.6 91 +16 +16 1008.0 1007.3
18 12.06 СВ 6 н/о н/о +16.8 +15.4 91 +16 +16 1007.7 1007.0 +14.5 +19.0
19 12.06 В 7 н/о н/о +16.1 +15.4 96 +15 +15 1007.4 1006.7
20 12.06 В 8 н/о н/о +15.7 +15.5 99 +14 +14 1007.6 1006.9
21 12.06 ЮВ 3 н/о н/о +15.3 +15.3 100 +15 +15 1007.8 1007.1
22 12.06 Ю 5 н/о н/о +14.8 +14.7 99 +13 +13 1008.5 1007.8
23 12.06 Ю 5 н/о н/о +14.7 +14.5 99 +13 +13 1008.3 1007.6
00 13.06 ЮЗ 6 н/о н/о +14.7 +14.6 99 +13 +13 1008.1 1007.4
01 13.06 ЮЗ 4 н/о н/о +14.8 +14.7 99 +13 +13 1008.0 1007.3
02 13.06 ЮЗ 8 н/о н/о +14.3 +13.7 96 +12 +12 1008.1 1007.4
03 13.06 ЮЗ 7 н/о н/о +14.6 +12.9 90 +13 +13 1009.1 1008.4
04 13.06 ЮЗ 8 н/о н/о +14.0 +12.3 89 +12 +12 1009.7 1009.0
05 13.06 ЮЗ 6 н/о н/о +14.2 +12.0 87 +12 +12 1010.7 1010.0
06 13.06 ЮЗ 7 н/о н/о +14.1 +11.4 84 +12 +12 1011.3 1010.6 +13.9 +16.9
07 13.06 ЮЗ 7 н/о н/о +14.3 +11.2 82 +12 +12 1011.5 1010.8
08 13.06 Ю 5 н/о н/о +14.7 +12.0 84 +13 +13 1011.7 1011.0
09 13.06 Ю 3 н/о н/о +15.4 +12.6 83 +15 +15 1012.1 1011.4
10 13.06 ЮВ 2 н/о н/о +16.4 +13.1 81 +16 +16 1012.5 1011.8
11 13.06 ЮВ 7 н/о н/о +16.6 +13.9 84 +15 +15 1012.7 1012.0
12 13.06 ЮВ 7 н/о н/о +16.9 +13.5 80 +16 +16 1012.6 1011.9
13 13.06 ЮВ 7 н/о н/о +17.0 +13.5 80 +16 +16 1012.6 1011.9
14 13.06 ЮВ 6 н/о н/о +16.9 +13.2 79 +16 +16 1012.6 1011.9
15 13.06 ЮВ 4 н/о н/о +17.6 +13.8 78 +17 +17 1012.8 1012.1
16 13.06 Ю 3 н/о н/о +17.1 +12.1 72 +17 +17 1013.3 1012.6
17 13.06 СЗ 1 н/о н/о +17.3 +11.3 68 +19 +19 1013.4 1012.7
18 13.06 В 2
{10}
н/о н/о +16.4 +13.0 80 +16 +16 1013.8 1013.1 +13.8 +19.4
19 13.06 В 2 н/о н/о +16.3 +12.3 77 +16 +16 1014.1 1013.4
20 13.06 В 2 н/о н/о +17.1 +9.7 62 +17 +17 1014.3 1013.6
21 13.06 В 4 н/о н/о +15.6 +13.0 85 +15 +15 1014.8 1014.1
22 13.06 В 3 н/о н/о +14.8 +13.3 91 +14 +14 1014.3 1013.6
23 13.06 В 7 н/о н/о +15.6 +14.1 91 +14 +14 1014.6 1013.9
00 14.06 В 9 н/о н/о +15.3 +13.8 91 +13 +13 1014.6 1013.9
01 14.06 Ю 8 н/о н/о +14.1 +11.5 84 +12 +12 1015.1 1014.4
02 14.06 Ю 4 н/о н/о +16.3 +9.7 65 +16 +16 1014.8 1014.1
03 14.06 ЮВ 5
{13}
н/о н/о +14.9 +12.4 85 +14 +14 1015.6 1014.9
04 14.06 ЮВ 4 н/о н/о +14.8 +13.2 90 +14 +14 1016.0 1015.3
05 14.06 Ю 4 н/о н/о +15.4 +14.6 95 +14 +14 1016.2 1015.5
06 14.06 ЮВ 3
{13}
н/о н/о +16.0 +14.5 91 +16 +16 1016.6 1015.9 +14.1 +17.3
07 14.06 ЮВ 4 н/о н/о +15.8 +14.8 94 +15 +15 1017.1 1016.4
08 14.06 ЮВ 6 н/о н/о +16.3 +14.9 91 +15 +15 1017.5 1016.8
09 14.06 ЮВ 4 н/о н/о +16.6 +14.5 87 +16 +16 1017.9 1017.2
10 14.06 ЮВ 5 н/о н/о +16.8 +14.5 86 +16 +16 1018.1 1017.4
11 14.06 ЮВ 4 н/о н/о +17.4 +14.5 83 +17 +17 1018.2 1017.5
12 14.06 ЮВ 5 н/о н/о +18.5 +14.8 79 +19 +19 1018.0 1017.3
13 14.06 В 5 н/о н/о +18.3 +13.6 74 +18 +18 1018.0 1017.3
14 14.06 В 3 н/о н/о +18.3 +12.0 67 +19 +19 1017.9 1017.2
15 14.06 В 4 н/о н/о +19.3 +12.3 64 +20 +20 1016.7 1016.0
16 14.06 СВ 2 н/о н/о +18.1 +11.9 67 +19 +19 1017.9 1017.2
17 14.06 СЗ 4 н/о н/о +15.8 +14.9 94 +15 +15 1019.3 1018.6
18 14.06 СВ 3 н/о н/о +15.4 +15.0 97 +15 +15 1017.8 1017.1 +14.8 +19.7
19 14.06 СВ 5 н/о н/о +15.4 +14.4 94 +14 +14 1017.4 1016.7
20 14.06 В 5 н/о н/о +15.5 +14.8 96 +14 +14 1017.9 1017.2
21 14.06 В 7 н/о н/о +16.3 +13.9 86 +15 +15 1017.7 1017.0
22 14.06 В 8 н/о н/о +16.2 +13.1 82 +15 +15 1017.4 1016.7
23 14.06 В 6 н/о н/о +15.5 +13.7 89 +14 +14 1016.9 1016.2
00 15.06 В 5 н/о н/о +15.5 +13.5 88 +14 +14 1016.6 1015.9
01 15.06 В 4 н/о н/о +15.8 +12.6 81 +15 +15 1016.4 1015.7
02 15.06 СВ 2 н/о н/о +15.8 +11.7 77 +16 +16 1015.9 1015.2
03 15.06 СВ 5 н/о н/о +16.3 +11.8 75 +15 +15 1015.2 1014.5
04 15.06 СВ 4 н/о н/о +15.8 +12.7 82 +15 +15 1014.6 1013.9
05 15.06 СВ 5 н/о н/о +16.8 +13.5 81 +16 +16 1014.4 1013.7
06 15.06 СВ 5 н/о н/о +17.3 +13.3 77 +17 +17 1013.8 1013.1 +15.1 +17.3
07 15.06 СВ 5 н/о н/о +17.4 +13.7 79 +17 +17 1013.9 1013.2
08 15.06 СВ 4 н/о н/о +17.0 +13.8 81 +16 +16 1014.2 1013.5
09 15.06 СВ 4 н/о н/о +17.3 +15.3 88 +17 +17 1013.7 1013.0
10 15.06 СВ 4 н/о н/о +17.9 +15.7 87 +18 +18 1013.2 1012.5
11 15.06 В 7 н/о н/о +16.3 +15.3 94 +15 +15 1012.2 1011.5
12 15.06 В 15 н/о н/о +16.0 +12.6 80 +13 +13 1011.5 1010.8
13 15.06 В 8 н/о н/о +16.3 +13.2 82 +15 +15 1013.2 1012.5
14 15.06 В 7 н/о н/о +16.6 +13.7 83 +15 +15 1012.2 1011.5
15 15.06 СВ 8 н/о н/о +17.4 +12.5 73 +16 +16 1011.5 1010.8
16 15.06 СВ 7 н/о н/о +16.9 +12.4 75 +16 +16 1012.3 1011.6
17 15.06 СВ 5 н/о н/о +15.7 +13.9 89 +14 +14 1012.0 1011.3
18 15.06 В 4 н/о н/о +15.8 +14.4 91 +15 +15 1012.1 1011.4 +15.6 +18.2
19 15.06 В 4 н/о н/о +15.5 +14.5 94 +15 +15 1011.3 1010.6
20 15.06 В 5 н/о н/о +15.4 +14.4 94 +14 +14 1011.7 1011.0
21 15.06 ЮВ 6 н/о н/о +15.5 +13.8 90 +14 +14 1012.2 1011.5
22 15.06 Ю 3 н/о н/о +15.2 +14.2 94 +15 +15 1012.2 1011.5

 

Местоположение метеостанции Мыс Sletterhage (Дания): широта 56.10 долгота 10.51 высота над уровнем моря 6 м.

В архиве по умолчанию представлена погода на Мысе Sletterhage за последнюю неделю. Архивные данные за месяц целиком и за предыдущие месяцы, начиная с января 2011 года, Вы можете получить, выбрав интересующий диапазон дат из раскрывающегося списка и нажав кнопку "Ввод!".


*Определитесь, кто Вы:
робот инопланетянин человек

Внимание! Время в таблицах - всемирное. Для получения местного времени необходимо прибавить поправку, которая равна 1 ч.

Смотрите также архив погоды в соседних городах и на ближайших метеорологических станциях:

Погода в Орхусе (Дания) (24 км)
Погода в Тирструпе (Дания) (26 км)
Погода на Мысе Roesnaes (Дания) (45 км)
Погода в Гнибене (Дания) (49 км)
Погода в Хорсенсе (Дания) (52 км)
Погода в Хальде V (Дания) (58 км)
Погода в Оденсе (Дания) (70 км)
Погода в Фоулуме (Дания) (73 км)
Погода в Хольбеке (Дания) (79 км)
Погода в Исенваде (Дания) (83 км)

Пояснения к столбцам:

Ветер - указаны скорость ветра в м/с - средняя за 10 мин, порывы в срок и между сроками (в фигурных скобках) и направление, откуда дует ветер: С - северный, СВ - северо-восточный, В - восточный, ЮВ - юго-восточный, Ю - южный, ЮЗ - юго-западный, З - западный, СЗ - северо-западный.
Видимость - горизонтальная дальность видимости в метрах или километрах. При видимости от 1 до 10 км при отсутствии осадков обычно наблюдается дымка, при ухудшении видимости до 1 км и менее - туман. В сухую погоду видимость может ухудшаться дымом, пылью или мглою.
Явления - указаны атмосферные явления, наблюдавшиеся в срок или в последний час перед сроком; фигурными скобками обозначены явления, наблюдавшиеся между сроками (за 1-3 часа до срока); квадратными скобками обозначены град или гололедные отложения с указанием их диаметра в мм.
Облачность - указаны через наклонную черту общая и нижняя облачность в баллах и высота нижней границы облаков в метрах; квадратными скобками обозначены формы облаков: Ci - перистые, Cs - перисто-слоистые, Cc - перисто-кучевые, Ac - высококучевые, As - высокослоистые, Sc - слоисто-кучевые, Ns - слоисто-дождевые, Cu - кучевые, Cb - кучево-дождевые. Подробнее классификацию облаков см. в Атласе облаков (PDF).
T - Температура воздуха - температура, измеренная на высоте 2 м над землей.
Td - Температура точки росы - температура, при понижении до которой содержащийся в воздухе водяной пар достигнет насыщения.
f - Относительная влажность воздуха - влажноcть воздуха, измеренная на высоте 2 м над землей.
Te - Эффективная температура - температура, которую ощущает одетый по сезону человек в тени. Характеристика душности погоды. При расчете учитывается влияние влажности воздуха и скорости ветра на теплоощущения человека.
Tes - Эффективная температура на солнце - температура, которую ощущает человек, с поправкой на солнечный нагрев. Характеристика знойности погоды. Зависит от высоты солнца над горизонтом, облачности и скорости ветра. Ночью, в пасмурную погоду, а также при ветре 12 м/с и более поправка равна нулю.
P - Атмосферное давление - приведенное к уровню моря атмосферное давление.
Po - Атмосферное давление - измеренное на уровне метеостанции атмосферное давление.
Tmin - Минимальная температура - минимум температуры воздуха на высоте 2 м над землей.
Tmax - Максимальная температура - максимум температуры воздуха на высоте 2 м над землей.
R - Количество осадков - Количество выпавших осадков за период времени, мм. При наведении курсора мыши на число - период времени, за который выпало указанное количество осадков.
R24 - Количество осадков - Количество выпавших осадков за 24 часа, мм.
S - Снежный покров - Высота снежного покрова, см. При наведении курсора мыши на число - состояние снежного покрова и степень покрытия местности в баллах.